Regional Weather Roundup
Issued by NWS

Home | Current Version | Previous Version | Graphics & Text | Print | Product List | Glossary On
Versions: 1 2 3 4 5 6 7 8 9 10 11 12 13 14 15 16 17 18 19 20 21 22 23 24 25 26 27 28 29 30 31 32 33 34 35 36 37 38 39 40 41 42 43 44 45 46 47 48 49 50
000
ASUS45 KABQ 010410
RWRNM
WEATHER ROUNDUP FOR NEW MEXICO
NATIONAL WEATHER SERVICE ALBUQUERQUE NM
1000 PM MDT THU JUL 31 2014

NOTE: "FAIR" MEANS FEW OR NO CLOUDS BELOW 12,000 FEET AGL WITH NO
       SIGNIFICANT WEATHER OR OBSTRUCTIONS TO VISION.

      THIS PRODUCT IS RELEASED AS TWO VERSIONS.  ONE VERSION NEAR
      THE TOP OF THE HOUR CONTAINING PRELIMINARY DATA FROM ALBUQUERQUE
      AND OTHER STATIONS.  A FINAL VERSION WITH ADDITIONAL DATA IS
      ISSUED ABOUT 10 MINUTES AFTER THE HOUR.

NMZ501-503-504-510>518-010500-
NORTHWEST PLATEAU/NORTHCENTRAL MOUNTAINS

CITY           SKY/WX    TMP DP  RH WIND       PRES   REMARKS
FARMINGTON     PTCLDY    73  53  49 SW14G28   30.18R
LOS ALAMOS     CLOUDY    58  53  84 W8        30.37S
SANTA FE       CLOUDY    59  56  89 W9        30.31R
TAOS             N/A     55  52  88 E3        30.38R
ANGEL FIRE     MOCLDY    53  51  92 S8        30.47R

$$
NMZ402-403-502-505>509-010500-
WESTCENTRAL MOUNTAINS/SOUTHWEST MOUNTAINS

CITY           SKY/WX    TMP DP  RH WIND       PRES   REMARKS
GALLUP         MOCLDY    62  54  74 SW8       30.32R
SILVER CITY    LGT RAIN  70  59  68 NW5       30.27R

$$
NMZ407-409-411-412-010500-
SOUTHERN DESERTS

CITY           SKY/WX    TMP DP  RH WIND       PRES   REMARKS
LORDSBURG      MOCLDY    73  55  53 E16       30.15R
DEMING         LGT RAIN  70  62  76 NW6       30.18R
LAS CRUCES     MOCLDY    78  58  50 SE12      30.14R
HOLLOMAN AFB   MOCLDY    79  61  53 S10       30.11R
ALAMOGORDO     MOCLDY    81  59  47 S7        30.13R
T OR C         LGT RAIN  72  59  63 N10G21    30.20R

$$
NMZ519>523-010500-
CENTRAL VALLEYS/CENTRAL HIGHLANDS

CITY           SKY/WX    TMP DP  RH WIND       PRES   REMARKS
ALBUQUERQUE    CLOUDY    65  54  67 E20       30.26R
DOUBLE EAGLE   MOCLDY    63  57  82 S6        30.30R
MORIARTY ARPT  LGT RAIN  59  53  83 SW7       30.36R
CLINES CORNERS LGT RAIN  55  53  93 E17       30.37S
BELEN          FAIR      67  57  71 E14       30.25S
SOCORRO        CLOUDY    65  61  86 N14G21    30.25R

$$
NMZ524>526-539-540-010500-
SOUTHCENTRAL MOUNTAINS

CITY           SKY/WX    TMP DP  RH WIND       PRES   REMARKS
RUIDOSO        NOT AVBL

$$
NMZ527>531-010500-
NORTHEAST HIGHLANDS/NORTHEAST PLAINS

CITY           SKY/WX    TMP DP  RH WIND       PRES   REMARKS
LAS VEGAS      LGT RAIN  54  53  97 W8        30.37F
RATON          CLOUDY    59  57  93 W3        30.34R
CLAYTON        CLOUDY    66  57  72 SE6       30.28R

$$
NMZ532>537-010500-
EASTCENTRAL PLAINS

CITY           SKY/WX    TMP DP  RH WIND       PRES   REMARKS
TUCUMCARI      CLOUDY    74  52  46 NE7       30.22R
CANNON AFB     CLOUDY    69  54  58 E9        30.24R
CLOVIS AIRPORT NOT AVBL

$$
NMZ028-029-538-010500-
SOUTHEAST PLAINS

CITY           SKY/WX    TMP DP  RH WIND       PRES   REMARKS
ROSWELL        MOCLDY    73  64  73 S5        30.17R
ARTESIA        MOCLDY    73  63  68 CALM      30.16S
CARLSBAD       CLOUDY    75  66  73 W3        30.13R
HOBBS          PTCLDY    75  54  46 E6        30.18R


$$



USA.gov is the U.S. government's official web portal to all federal, state and local government web resources and services.